TimeEST,TemperatureF,Dew PointF,Humidity,Sea Level PressureIn,VisibilityMPH,Wind Direction,Wind SpeedMPH,Gust SpeedMPH,PrecipitationIn,Events,Conditions,WindDirDegrees,DateUTC
12:53 AM,14.0,9.0,80,30.53,10.0,South,3.5,-,N/A,,Clear,190,2013-11-25 05:53:00
1:53 AM,14.0,9.0,80,30.56,10.0,SSW,3.5,-,N/A,,Clear,200,2013-11-25 06:53:00
2:53 AM,12.9,9.0,84,30.56,10.0,Calm,Calm,-,N/A,,Clear,0,2013-11-25 07:53:00
3:53 AM,15.1,8.1,74,30.55,10.0,Calm,Calm,-,N/A,,Clear,0,2013-11-25 08:53:00
4:53 AM,16.0,7.0,68,30.54,10.0,Calm,Calm,-,N/A,,Clear,0,2013-11-25 09:53:00
5:53 AM,16.0,9.0,74,30.53,10.0,Calm,Calm,-,N/A,,Clear,0,2013-11-25 10:53:00
6:53 AM,14.0,9.0,80,30.53,10.0,Calm,Calm,-,N/A,,Clear,0,2013-11-25 11:53:00
7:53 AM,15.1,10.0,80,30.52,10.0,Calm,Calm,-,N/A,,Clear,0,2013-11-25 12:53:00
8:53 AM,19.9,8.1,60,30.51,10.0,Calm,Calm,-,N/A,,Clear,0,2013-11-25 13:53:00
9:53 AM,24.1,8.1,51,30.49,10.0,South,4.6,-,N/A,,Clear,180,2013-11-25 14:53:00
10:53 AM,28.0,6.1,39,30.47,10.0,SSW,5.8,-,N/A,,Clear,210,2013-11-25 15:53:00
11:53 AM,32.0,3.9,31,30.41,10.0,SSW,3.5,-,N/A,,Clear,210,2013-11-25 16:53:00
12:53 PM,36.0,-2.0,20,30.36,10.0,South,4.6,-,N/A,,Clear,190,2013-11-25 17:53:00
1:53 PM,39.0,-2.0,18,30.31,10.0,Variable,5.8,-,N/A,,Clear,0,2013-11-25 18:53:00
2:53 PM,39.0,-4.0,16,30.30,10.0,SW,6.9,-,N/A,,Clear,220,2013-11-25 19:53:00
3:53 PM,39.0,-0.0,19,30.30,10.0,SW,4.6,-,N/A,,Clear,230,2013-11-25 20:53:00
4:53 PM,37.9,3.0,23,30.30,10.0,SW,9.2,-,N/A,,Mostly Cloudy,220,2013-11-25 21:53:00
5:53 PM,37.9,6.1,27,30.30,10.0,SSW,4.6,-,N/A,,Mostly Cloudy,200,2013-11-25 22:53:00
6:53 PM,37.9,7.0,28,30.31,10.0,Calm,Calm,-,N/A,,Overcast,0,2013-11-25 23:53:00
7:53 PM,37.0,8.1,30,30.29,10.0,Calm,Calm,-,N/A,,Overcast,0,2013-11-26 00:53:00
8:53 PM,37.9,10.9,33,30.27,10.0,SSW,5.8,-,N/A,,Overcast,200,2013-11-26 01:53:00
9:53 PM,39.0,10.9,32,30.28,10.0,SSW,5.8,-,N/A,,Overcast,210,2013-11-26 02:53:00
10:53 PM,39.0,12.0,33,30.28,10.0,SSW,5.8,-,N/A,,Overcast,210,2013-11-26 03:53:00
11:53 PM,39.9,12.0,32,30.26,10.0,SSW,5.8,-,N/A,,Overcast,210,2013-11-26 04:53:00